Weather in Potapovo

Russia / Smolensk Oblast     55°30′31″N   34°50′08″E
temp.,
°C
wind,
m/s
gust,
m/s
humid.,
%
clouds,
%
prec.,
mm/h
press.,
hPa
HPBL,
m
18 april, sun
sun1800:00+8ne6137192 0.0 1019420
03:00+6ne714735 0.0 1019389
06:00+5ne6137775 0.0 1019478
09:00+7ene696776 0.0 1020820
12:00+9e5863100 0.0 10201278
15:00+8ese6877100 0.3 1021738
18:00+7e5118296 0.2 1022905
21:00+7ene71085100 0.2 10221015
19 april, mon
mon1900:00+6ene5986100 0.0 1022657
03:00+6ene51083100 0.0 1023750
06:00+6ne5987100 0.1 1022564
09:00+6ne6988100 0.2 1023971
12:00+6ene6988100 0.1 1024862
15:00+4ene61095100 0.3 1024764
18:00+6e61083100 0.2 1023900
21:00+3ene61196100 0.4 1024653
20 april, tue
tue2000:00+3ene61089100 0.1 1023783
03:00+2ene6119096 0.1 1022642
06:00+1ene51196100 0.1 1021582
09:00+2ene51098100 0.1 1020464
12:00+3ene51099100 0.3 1019425
15:00+5e61292100 0.4 1017654
18:00+5ene61293100 2.2 1015936
21:00+4ene71496100 2.9 1013882
21 april, wed
wed2100:00+3ene81697100 6.0 1008956
03:00+2ene81698100 11.0 1003885
06:00+2ene61499100 7.1 1000692
09:00+5e71498100 9.0 997663
12:00+5se6996100 1.1 996585
15:00+3s3598100 1.7 997647
18:00+1wsw91498100 3.6 1001604
21:00+2wsw81398100 7.4 1007813
22 april, thu
thu2200:00+2wsw61199100 0.7 1010810
03:00+3wsw61296100 0.9 1013556
06:00+2ssw3798100 0.0 1015230
09:00+6ssw578689 0.0 1017352
12:00+10sw566921 0.0 1018957
15:00+12sw35565 0.0 10191330
18:00+11s24705 0.1 1020278
21:00+7sse338773 0.3 102127